Regional Weather Roundup
Issued by NWS

Home | Current Version | Previous Version | Graphics & Text | Print | Product List | Glossary On
Versions: 1 2 3 4 5 6 7 8 9 10 11 12 13 14 15 16 17 18 19 20 21 22 23 24 25 26 27 28 29 30 31 32 33 34 35 36 37 38 39 40 41 42 43 44 45 46 47 48 49 50
000
ASUS43 KLOT 091108
RWRIL

ILLINOIS REGIONAL WEATHER ROUNDUP
NATIONAL WEATHER SERVICE CHICAGO/ROMEOVILLE IL
500 AM CST FRI DEC 09 2016

NOTE: "FAIR" INDICATES FEW OR NO CLOUDS BELOW 12,000 FEET WITH NO
SIGNIFICANT WEATHER AND/OR OBSTRUCTIONS TO VISIBILITY.

* THESE STATIONS ARE NOT UNDER NWS QUALITY CONTROL. THEY ALSO MAY NOT
  REPORT WEATHER SUCH AS PRECIPITATION OR FOG.

ILZ001-002-007-009-015-016-024-091200-
NORTHWEST ILLINOIS

CITY           SKY/WX    TMP DP  RH WIND       PRES   REMARKS
MOLINE         CLOUDY    20  11  68 NW8       30.55S WCI  10
STERLING*      FLURRIES  20  15  81 W13       30.52R WCI   7
SAVANNA*       CLOUDY    19  13  77 NW10      30.52S WCI   8
$$

ILZ003-004-008-010-011-017-018-091200-
NORTH CENTRAL ILLINOIS

CITY           SKY/WX    TMP DP  RH WIND       PRES   REMARKS
ROCKFORD       FLURRIES  22  16  78 NW14      30.49S WCI   9
FREEPORT*      CLOUDY    20  15  82 NW10      30.50S WCI   9
ROCHELLE*      CLOUDY    21  16  83 W9        30.49S WCI  10
DE KALB*       CLOUDY    21  17  84 W10       30.46S WCI  10
$$

ILZ005-006-012>014-019>023-091200-
NORTHEAST ILLINOIS

CITY           SKY/WX    TMP DP  RH WIND       PRES   REMARKS
CHICAGO-OHARE  CLOUDY    22  16  78 W9        30.45S WCI  12
CHICAGO-MIDWAY FLURRIES  23  15  71 W7        30.47R WCI  15
AURORA         CLOUDY    22  16  78 W15       30.48R WCI   9
LANSING*       CLOUDY    22  19  86 W9        30.47S WCI  12
JOLIET*        CLOUDY    24  18  80 W6        30.49S WCI  16
WAUKEGAN       CLOUDY    22  17  81 W6        30.43R WCI  14
DUPAGE AIRPORT CLOUDY    21  15  78 W9        30.46S WCI  11
KANKAKEE*      FLURRIES  23  18  81 W9        30.50R WCI  13
WHEELING       CLOUDY    22  16  78 NW8       30.46S WCI  12
MORRIS*        CLOUDY    22  17  81 W12       30.49R WCI  11
ROMEOVILLE*    CLOUDY    22  19  91 NW12      30.48R WCI  10
NORTHERLY ISL    N/A     23  18  81 W13         N/A  WCI  11
$$

LMZ740>746-091200-
SOUTHERN LAKE MICHIGAN

STATION/POSITION SKY/WX   TEMP    WIND        PRES    VSBY  WAVE
                          AIR SEA DIR/SP/G                  HT/PER
                          (F)     (DEG/KT/KT) (MB)    (MI)  (FT/S)
HARRISON CRIB              24     290/ 17/ 19   N/A
BURNHAM HARBOR             23     270/ 10/ 13   N/A
CALUMET HARBOR             22     260/  6/ 12 1030.6S
BURNS HARBOR               26     280/ 17/ 20 1031.2R
$$

ILZ025>027-034>036-040-047-049-050-058-095>099-091200-
WEST-CENTRAL ILLINOIS

CITY           SKY/WX    TMP DP  RH WIND       PRES   REMARKS
QUINCY         CLOUDY    16  11  80 W8        30.59R WCI   5
GALESBURG*     CLOUDY    20  14  78 W8        30.55R WCI  11
MACOMB*        CLOUDY    21  13  72 NW14      30.59R WCI   8
JACKSONVILLE*  CLOUDY    19  13  78 W8        30.58S WCI   9
PITTSFIELD*    PTCLDY    15  11  83 W5        30.60R WCI   8
$$

ILZ028>032-037-038-041>044-048-051>054-059>061-091200-
CENTRAL ILLINOIS

CITY           SKY/WX    TMP DP  RH WIND       PRES   REMARKS
PONTIAC        CLOUDY    23  18  80 W9        30.52R WCI  13
BLOOMINGTON    CLOUDY    20  14  77 W9        30.52S WCI   9
DECATUR        LGT SNOW  22  16  78 W9        30.55S WCI  12
PEORIA         CLOUDY    22  13  68 W6        30.55R WCI  14
LACON*         CLOUDY    21  13  72 W6        30.53S WCI  13
LINCOLN*       CLOUDY    24  15  70 NW3       30.55S
SPRINGFIELD    CLOUDY    23  15  71 W8        30.57S WCI  14
TAYLORVILLE    CLOUDY    21  15  76 CALM      30.57R
$$

ILZ033-039-045-046-055>057-062-063-091200-
EAST-CENTRAL ILLINOIS

CITY           SKY/WX    TMP DP  RH WIND       PRES   REMARKS
CHAMPAIGN      FLURRIES  23  13  65 W12       30.53S WCI  12
RANTOUL*       CLOUDY    24  17  72 W9        30.52S WCI  15
MATTOON        FLURRIES  22  14  71 NW10      30.54R WCI  11
PARIS*         FLURRIES  22  17  82 W8        30.54S WCI  12
$$

ILZ079-100>102-091200-
SOUTHWEST ILLINOIS

CITY           SKY/WX    TMP DP  RH WIND       PRES   REMARKS
ALTON          CLEAR     17  12  82 W5        30.60S WCI  10
BELLEVILLE     PTCLDY    17  12  82 W7        30.59S WCI   8
CAHOKIA*       CLEAR     20  11  68 W5        30.61S WCI  13
SPARTA*        CLEAR     18  13  79 CALM      30.62R
$$

ILZ064>066-069>071-074>076-080>082-084>086-088>090-092>094-091200-
SOUTH-CENTRAL ILLINOIS

CITY           SKY/WX    TMP DP  RH WIND       PRES   REMARKS
CARBONDALE     CLEAR     18  13  80 W3        30.62S
CAIRO*         CLEAR     20  14  76 NW6       30.63R WCI  12
EFFINGHAM*     CLOUDY    24  16  70 NW9       30.58S WCI  15
MARION         CLEAR     21  16  79 CALM      30.62R
CENTRALIA*     CLEAR     20  15  81 W5        30.59R WCI  14
SALEM*         CLEAR     21  13  71 W5        30.59R WCI  15
METROPOLIS*    CLEAR     18  14  84 CALM      30.62S
$$

ILZ067-068-072-073-078-083-087-091-091200-
SOUTHEAST ILLINOIS

CITY           SKY/WX    TMP DP  RH WIND       PRES   REMARKS
LAWRENCEVILLE  CLOUDY    22  13  68 NW9       30.59R WCI  12
FLORA*         CLOUDY    25  15  65 NW6       30.59S WCI  18
FAIRFIELD*     CLOUDY    23  14  68 CALM      30.59R
HARRISBURG*    PTCLDY    21  14  73 NW3       30.62R
ROBINSON*      CLOUDY    21  13  71 NW5       30.58S WCI  15
CARMI*         CLOUDY    23  15  73 N9        30.59S WCI  13
$$

ABBREVIATIONS USED IN REMARKS
   TC - TEMPERATURE IN CELSIUS
  WCI - WIND CHILL INDEX
   HX - HEAT INDEX
  VSB - VISIBILITY
$$





USA.gov is the U.S. government's official web portal to all federal, state and local government web resources and services.